(186604) = 2003 BP92

Discovered at Apache Point on 2003-01-28 by Sloan Digital Sky Survey.

Orbit

Orbit type: Main Belt

Note: WebGL enabled browser required.

epoch2023-02-25.0
epoch JD2460000.5
perihelion date2021-10-28.02154
perihelion JD2459515.52154
argument of perihelion (°)116.06862
ascending node (°)29.41258
inclination (°)8.05860
eccentricity0.1559248
perihelion distance (AU)2.3681502
Tisserand w.r.t. Jupiter3.3
ΔV w.r.t. Earth (km/sec)10.0
semimajor axis (AU)2.8056151
mean anomaly (°)101.71480
mean daily motion (°/day)0.20973060
aphelion distance (AU)3.243
period (years)4.7
P-vector [x]-0.81958425
P-vector [y]0.46273637
P-vector [z]0.33787085
Q-vector [x]-0.56880760
Q-vector [y]-0.72797754
Q-vector [z]-0.38276184
absolute magnitude16.56
phase slope0.15
uncertainty0
referenceMPO 745323
observations used356
oppositions14
arc length (days)7921
first opposition used2001
last opposition used2023
residual rms (arc-secs)0.67
perturbers coarse indicatorM-v
perturbers precise indicator003Ek
first observation date used2001-10-13.0
last observation date used2023-06-21.0
computer nameMPCLINUX
JD of orbit computation2456877.846283
perihelion JD uncertainty (days)1.6515E-04
argument of perihelion uncertainty (°)4.2545E-05
ascending node uncertainty (°)3.1299E-05
inclination uncertainty (°)5.7218E-06
eccentricity uncertainty 5.1307E-08
perihelion distance uncertainty (AU)1.3399E-07
Minimum Orbit Intersection Distances (in AU)
for orbit epoch: 2460000.5, reference: E2023-M85
Mercury2.0108
Venus1.65206
Earth1.39291
Mars0.72544
Jupiter1.79641
Saturn6.33414
Uranus16.0326
Neptune26.7397

Observations

362 total observations over interval: 2001 10 13.33384 – 2023 06 21.466949
These data are available for download (format description).

Date (UT) J2000 RA J2000 Dec Magn Location Ref
2001 10 13.33384 02 33 20.04 +15 57 12.7 21.6 V 691 – Steward Observatory, Kitt Peak-Spacewatch MPS 190444
2001 10 13.35549 02 33 18.97 +15 57 11.5 21.2 V 691 – Steward Observatory, Kitt Peak-Spacewatch MPS 190444
2001 10 13.37739 02 33 17.88 +15 57 10.3 21.8 V 691 – Steward Observatory, Kitt Peak-Spacewatch MPS 190444
2003 01 28.465260 11 38 39.385 +13 31 30.73 20.16 V 645 – Apache Point-Sloan Digital Sky Survey MPS 182588
2003 01 28.468732 11 38 39.341 +13 31 31.19 20.76   645 – Apache Point-Sloan Digital Sky Survey MPS 182588
2003 02 09.51450 11 34 15.19 +14 08 59.1 20.6   608 – Haleakala-AMOS MPS 182588
2003 02 09.52490 11 34 14.90 +14 09 00.8 20.0   608 – Haleakala-AMOS MPS 182588
2003 02 09.53591 11 34 14.44 +14 09 04.5 20.4   608 – Haleakala-AMOS MPS 182588
2003 02 28.30473 11 20 13.17 +15 16 45.4 19.2   704 – Lincoln Laboratory ETS, New Mexico MPS 182588
2003 02 28.31817 11 20 12.48 +15 16 49.0 19.0   704 – Lincoln Laboratory ETS, New Mexico MPS 182588
2003 02 28.33300 11 20 11.69 +15 16 52.0 18.5   704 – Lincoln Laboratory ETS, New Mexico MPS 182588
2003 02 28.34749 11 20 10.85 +15 16 55.2 19.2   704 – Lincoln Laboratory ETS, New Mexico MPS 182588
2003 02 28.36175 11 20 10.05 +15 16 57.7 19.4   704 – Lincoln Laboratory ETS, New Mexico MPS 182588
2003 03 11.37703 11 09 57.86 +15 45 03.5 19.3   644 – Palomar Mountain/NEAT MPS 182588
2003 03 11.40058 11 09 56.50 +15 45 05.9 19.3   644 – Palomar Mountain/NEAT MPS 182588
2003 03 11.42401 11 09 55.16 +15 45 08.1 19.2   644 – Palomar Mountain/NEAT MPS 182588
2003 03 26.13881 10 57 34.31 +15 52 03.0 19.6 V 691 – Steward Observatory, Kitt Peak-Spacewatch MPS 182588
2003 03 26.16514 10 57 33.12 +15 52 02.0 19.8 V 691 – Steward Observatory, Kitt Peak-Spacewatch MPS 182588
2003 03 26.19140 10 57 31.94 +15 52 00.2 19.7 V 691 – Steward Observatory, Kitt Peak-Spacewatch MPS 182588
2003 04 10.13502 10 49 30.85 +15 17 48.1 21.0 V 691 – Steward Observatory, Kitt Peak-Spacewatch MPS 182588
2003 04 10.13759 10 49 30.79 +15 17 48.6 21.1 V 691 – Steward Observatory, Kitt Peak-Spacewatch MPS 182588
2003 04 10.16174 10 49 30.29 +15 17 42.7 21.5 V 691 – Steward Observatory, Kitt Peak-Spacewatch MPS 182588
2003 04 10.16439 10 49 30.18 +15 17 43.2 21.4 V 691 – Steward Observatory, Kitt Peak-Spacewatch MPS 182588
2003 04 10.18967 10 49 29.69 +15 17 36.7 21.2 V 691 – Steward Observatory, Kitt Peak-Spacewatch MPS 182588
2003 04 10.19224 10 49 29.56 +15 17 36.5 21.6 V 691 – Steward Observatory, Kitt Peak-Spacewatch MPS 182588
2006 11 17.21574 04 29 21.08 +29 05 33.0 20.2 V 691 – Steward Observatory, Kitt Peak-Spacewatch MPS 190444
2006 11 17.23307 04 29 20.04 +29 05 34.8 20.2 V 691 – Steward Observatory, Kitt Peak-Spacewatch MPS 190444
2006 11 17.25039 04 29 19.01 +29 05 36.5 20.5 V 691 – Steward Observatory, Kitt Peak-Spacewatch MPS 190444
2006 11 25.20229 04 21 10.51 +29 14 21.9   691 – Steward Observatory, Kitt Peak-Spacewatch MPS 190444
2006 11 25.21964 04 21 09.38 +29 14 22.4   691 – Steward Observatory, Kitt Peak-Spacewatch MPS 190444
2006 11 25.23699 04 21 08.21 +29 14 23.9   691 – Steward Observatory, Kitt Peak-Spacewatch MPS 190444
2008 03 05.47526 13 59 52.62 -08 51 01.0   691 – Steward Observatory, Kitt Peak-Spacewatch MPS 240671
2008 03 05.49293 13 59 52.34 -08 51 01.4   691 – Steward Observatory, Kitt Peak-Spacewatch MPS 240671
2008 03 05.51061 13 59 52.06 -08 51 02.8   691 – Steward Observatory, Kitt Peak-Spacewatch MPS 240671
2008 03 29.35551 13 46 50.91 -08 46 04.3 19.9 V G96 – Mt. Lemmon Survey MPS 244629
2008 03 29.36127 13 46 50.59 -08 46 04.1 19.9 V G96 – Mt. Lemmon Survey MPS 244629
2008 03 29.36697 13 46 50.34 -08 46 03.5 19.7 V G96 – Mt. Lemmon Survey MPS 244629
2008 03 29.37267 13 46 50.05 -08 46 03.0 19.8 V G96 – Mt. Lemmon Survey MPS 244629
2008 04 09.22827 13 37 16.95 -08 29 51.7 19.9 V 691 – Steward Observatory, Kitt Peak-Spacewatch MPS 245704
2008 04 09.24591 13 37 15.95 -08 29 49.9 19.8 V 691 – Steward Observatory, Kitt Peak-Spacewatch MPS 245704
2008 04 09.26355 13 37 14.94 -08 29 48.0 19.7 V 691 – Steward Observatory, Kitt Peak-Spacewatch MPS 245704
2008 04 12.21206 13 34 30.01 -08 24 49.2 19.8 V 691 – Steward Observatory, Kitt Peak-Spacewatch MPS 246713
2008 04 12.22964 13 34 28.98 -08 24 47.4 19.8 V 691 – Steward Observatory, Kitt Peak-Spacewatch MPS 246713
2008 04 12.25019 13 34 27.80 -08 24 45.5 19.8 V 691 – Steward Observatory, Kitt Peak-Spacewatch MPS 246713
2008 04 13.25120 13 33 31.59 -08 23 04.1 19.9   704 – Lincoln Laboratory ETS, New Mexico MPS 246713
2008 04 13.26223 13 33 30.95 -08 23 02.4 19.7   704 – Lincoln Laboratory ETS, New Mexico MPS 246713
2008 04 13.28425 13 33 29.56 -08 22 59.0 20.0   704 – Lincoln Laboratory ETS, New Mexico MPS 246713
2008 04 24.25929 13 23 29.14 -08 05 36.2 19.9 V G96 – Mt. Lemmon Survey MPS 247742
2008 04 24.26488 13 23 28.82 -08 05 35.8 19.7 V G96 – Mt. Lemmon Survey MPS 247742
2008 04 24.27048 13 23 28.53 -08 05 35.4 19.9 V G96 – Mt. Lemmon Survey MPS 247742
2008 04 24.27606 13 23 28.24 -08 05 34.9 19.9 V G96 – Mt. Lemmon Survey MPS 247742
2010 06 29.623024 00 41 25.896 -01 21 15.48   C51 – WISE MPS 903361
2010 06 30.086023 00 41 43.565 -01 19 33.49   C51 – WISE MPS 903361
2010 06 30.284416 00 41 50.918 -01 18 50.08   C51 – WISE MPS 903361
2010 06 30.284543 00 41 50.909 -01 18 50.62   C51 – WISE MPS 903361
2010 06 30.416719 00 41 56.050 -01 18 23.90   C51 – WISE MPS 903361
2010 06 30.747542 00 42 08.352 -01 17 11.65   C51 – WISE MPS 903361
2010 09 13.463824 00 39 11.172 -01 32 35.21 20.82 i F51 – Pan-STARRS 1, Haleakala MPS 365167
2010 09 13.475419 00 39 10.635 -01 32 37.43 21.23 i F51 – Pan-STARRS 1, Haleakala MPS 365167
2010 09 30.27390 00 25 28.16 -02 32 16.1 20.4 V G96 – Mt. Lemmon Survey MPS 350892
2010 09 30.27962 00 25 27.84 -02 32 17.3 20.3 V G96 – Mt. Lemmon Survey MPS 350892
2010 09 30.28538 00 25 27.55 -02 32 18.2 20.1 V G96 – Mt. Lemmon Survey MPS 350892
2010 09 30.29110 00 25 27.22 -02 32 19.6 20.1 V G96 – Mt. Lemmon Survey MPS 350892
2010 10 14.297511 00 13 47.294 -03 13 44.64 20.63 i F51 – Pan-STARRS 1, Haleakala MPS 365167
2010 10 14.309109 00 13 46.736 -03 13 46.24 20.78 i F51 – Pan-STARRS 1, Haleakala MPS 365167
2011 11 26.60661 07 29 47.147 +32 29 42.42 20.5 g F51 – Pan-STARRS 1, Haleakala MPS 403601
2011 11 26.61855 07 29 47.032 +32 29 46.27 20.5 g F51 – Pan-STARRS 1, Haleakala MPS 403601
2011 12 26.02506 07 12 16.19 +35 01 08.4 19.5 R 106 – Crni Vrh MPS 405718
2011 12 26.03635 07 12 15.54 +35 01 11.1 18.9 R 106 – Crni Vrh MPS 405718
2011 12 26.04761 07 12 14.75 +35 01 14.0 18.9 R 106 – Crni Vrh MPS 405718
2011 12 26.05891 07 12 14.10 +35 01 16.8 18.8 R 106 – Crni Vrh MPS 405718
2013 04 16.49923 15 55 21.061 -24 32 45.05 20.5 w F51 – Pan-STARRS 1, Haleakala MPS 464773
2013 04 16.50252 15 55 20.939 -24 32 45.45 20.6 w F51 – Pan-STARRS 1, Haleakala MPS 464773
2013 04 16.51535 15 55 20.447 -24 32 47.08 20.5 w F51 – Pan-STARRS 1, Haleakala MPS 464773
2013 04 16.51865 15 55 20.321 -24 32 47.40 20.5 w F51 – Pan-STARRS 1, Haleakala MPS 464773
2013 04 16.53149 15 55 19.842 -24 32 48.98 20.5 w F51 – Pan-STARRS 1, Haleakala MPS 464773
2013 04 16.53478 15 55 19.718 -24 32 49.49 20.4 w F51 – Pan-STARRS 1, Haleakala MPS 464773
2013 04 16.54762 15 55 19.259 -24 32 51.17 20.4 w F51 – Pan-STARRS 1, Haleakala MPS 464773
2013 04 16.55091 15 55 19.125 -24 32 51.39 20.5 w F51 – Pan-STARRS 1, Haleakala MPS 464773
2013 05 11.42039 15 34 32.593 -24 53 52.57 19.9 w F51 – Pan-STARRS 1, Haleakala MPS 468406
2013 05 11.43426 15 34 31.733 -24 53 52.30 20.0 w F51 – Pan-STARRS 1, Haleakala MPS 468406
2013 06 01.37223 15 14 44.922 -24 30 59.01 20.3 w F51 – Pan-STARRS 1, Haleakala MPS 469706
2013 06 01.38703 15 14 44.157 -24 30 57.68 20.3 w F51 – Pan-STARRS 1, Haleakala MPS 469706
2013 06 01.40184 15 14 43.400 -24 30 56.21 20.3 w F51 – Pan-STARRS 1, Haleakala MPS 469706
2013 06 09.98517 15 08 23.22 -24 17 20.7 20.7   J43 – Oukaimeden Observatory, Marrakech MPS 470505
2013 06 10.00022 15 08 22.61 -24 17 19.6 21.4   J43 – Oukaimeden Observatory, Marrakech MPS 470505
2013 06 10.01524 15 08 21.99 -24 17 17.4 21.0   J43 – Oukaimeden Observatory, Marrakech MPS 470505
